Regional Weather Roundup
Issued by NWS Kansas City/Pleasant Hill, MO

Home | Current Version | Previous Version | Graphics & Text | Print | Product List | Glossary Off
Versions: 1 2 3 4 5 6 7 8 9 10 11 12 13 14 15 16 17 18 19 20 21 22 23 24 25 26 27 28 29 30 31 32 33 34 35 36 37 38 39 40 41 42 43 44 45 46 47 48 49 50

000
ASUS43 KEAX 212011
RWREAX

WEATHER ROUNDUP FOR EASTERN KANSAS AND NORTHWEST MISSOURI
NATIONAL WEATHER SERVICE KANSAS CITY/PLEASANT HILL MO
300 PM CDT TUE OCT 21 2014

KSZ040-057-103>105-MOZ028-029-037-043-212100-
...KANSAS CITY METROPOLITAN AREA...

CITY           SKY/WX    TMP DP  RH WIND       PRES   REMARKS
K.C. INTL      SUNNY     72  43  35 S6        30.09F
K.C. DOWNTOWN  SUNNY     75  44  33 VRB3      30.08F
LEES SUMMIT    SUNNY     73  43  33 E3        30.09F
OLATHE - IXD   SUNNY     73  45  36 VRB5      30.09F
OLATHE - OJC   SUNNY     73  44  35 CALM      30.08F
LAWRENCE       SUNNY     73  44  35 VRB3      30.08F

$$

MOZ001>008-011>017-020>025-030>033-038>040-044>046-053-054-212100-
...NORTHERN AND CENTRAL MISSOURI...

CITY           SKY/WX    TMP DP  RH WIND       PRES   REMARKS
ST. JOSEPH     SUNNY     74  42  31 SE6       30.08F
MOSBY          CLEAR     72  37  28 SW3       30.09F
WHITEMAN AFB   SUNNY     71  43  36 VRB2      30.09F
CLINTON        SUNNY     73  46  38 CALM      30.09F
SEDALIA        SUNNY     73  44  35 SW5       30.10F
WARSAW         NOT AVBL
MARSHALL       SUNNY     75  46  35 CALM      30.10F HAZE
CHILLICOTHE      N/A     71  47  42 CALM      30.10F
MOBERLY        SUNNY     72  41  33 NE6       30.11F
KIRKSVILLE     SUNNY     66  46  48 E7        30.13F

$$

MOZ041-047>049-056>058-063>065-088>090-097-212100-
...EASTERN AND SOUTHERN MISSOURI...

CITY           SKY/WX    TMP DP  RH WIND       PRES   REMARKS
ST. LOUIS INTL SUNNY     67  44  43 N8        30.11F
SPIRIT OF STL  SUNNY     67  46  47 VRB3      30.10F
COLUMBIA       SUNNY     72  44  36 NE6       30.10F
JEFFERSON CITY SUNNY     73  43  33 NE7       30.09F
MEXICO         SUNNY     70  50  49 N5        30.11F
HANNIBAL       SUNNY     68  36  30 CALM      30.13S HAZE
ROLLA          SUNNY     71  43  36 N8        30.09F
LEBANON        SUNNY     72  41  33 N3        30.11S
OSAGE BEACH    SUNNY     72  45  37 S7        30.10S
SPRINGFIELD    SUNNY     74  44  34 NW6       30.09F
BRANSON        SUNNY     73  48  40 W6        30.10F
JOPLIN         SUNNY     75  49  39 CALM      30.08F
WEST PLAINS    SUNNY     73  43  33 MISG      30.10F

$$

IAZ060-094-KSZ022-034>040-054-083-096-NEZ052-066-093-212100-
...KANSAS...SOUTHEAST NEBRASKA AND IOWA...

CITY           SKY/WX    TMP DP  RH WIND       PRES   REMARKS
TOPEKA         SUNNY     77  43  29 SE6       30.07F
MANHATTAN      SUNNY     78  46  32 S10       30.04F
EMPORIA        SUNNY     75  51  43 E8        30.06F
CHANUTE        SUNNY     75  55  49 VRB6      30.07F
WICHITA        MOSUNNY   80  58  46 SE10      30.03F
OMAHA          SUNNY     73  40  30 S10       30.05F
LINCOLN        SUNNY     77  44  30 S14       30.04F
FALLS CITY     SUNNY     74  41  30 S6        30.06F
LAMONI         SUNNY     69  44  40 VRB3      30.10S
DES MOINES     SUNNY     66  44  45 SE7       30.11F

$$




USA.gov is the U.S. government's official web portal to all federal, state and local government web resources and services.